Glenwood, MN

12:19 AM CST on February 10, 2016 (GMT -0600)
Glenwood Municipal

Weather History for KGHW - May, 2014

Change the Weather History Date:

Tuesday, May 13, 2014

  Actual Average Record
Temperature  
Mean Temperature 44 °F -  
Max Temperature 51 °F 68 °F 95 °F (2007)
Min Temperature 37 °F 40 °F 24 °F (1953)
Degree Days  
Heating Degree Days 21    
Moisture  
Dew Point 37 °F    
Average Humidity 77    
Maximum Humidity 93    
Minimum Humidity 54    
Precipitation  
Precipitation 0.00 in - - ()
Sea Level Pressure  
Sea Level Pressure 30.07 in    
Wind  
Wind Speed 19 mph (WNW)    
Max Wind Speed 26 mph    
Max Gust Speed 36 mph    
Visibility 10 miles    
Events Rain    
Averages and records for this station are not official NWS values.
T = Trace of Precipitation, MM = Missing Value Source: NWS Daily Summary

Daily Weather History Graph

Daily Weather History Graph

Search for Another Location

Airport or City:

Trip Planner

Search our weather history database for the weather conditions in past years. The results will help you decide how hot, cold, wet, or windy it might be!

Date:

Astronomy

May. 13, 2014 Rise Set
Actual Time 5:52 AM CDT 8:43 PM CDT
Civil Twilight 5:18 AM CDT 9:18 PM CDT
Nautical Twilight 4:34 AM CDT 10:02 PM CDT
Astronomical Twilight 3:42 AM CDT 10:54 PM CDT
Moon 7:42 PM CDT (5/13) 5:14 AM CDT (5/13)
Length of Visible Light 15h 59m
Length of Day
14h 50m
Waxing Gibbous, 99% of the Moon is Illuminated
May 13
Waxing Gibbous
May 14
Full
May 21
Last Quarter
May 28
New
Jun 5
First Quarter

Hourly Weather History & Observations

Time (CDT) Temp. Windchill Dew Point Humidity Pressure Visibility Wind Dir Wind Speed Gust Speed Precip Events Conditions
12:13 AM 42.8 °F 33.8 °F 41.0 °F 93% 29.88 in 10.0 mi NW 21.9 mph 31.1 mph N/A   Overcast
12:33 AM 42.8 °F 33.8 °F 41.0 °F 93% 29.88 in 10.0 mi WNW 21.9 mph 35.7 mph N/A   Overcast
12:53 AM 42.8 °F 34.0 °F 39.2 °F 87% 29.88 in 10.0 mi WNW 20.7 mph 25.3 mph N/A   Overcast
1:14 AM 42.8 °F 33.3 °F 39.2 °F 87% 29.87 in 10.0 mi NW 24.2 mph 29.9 mph N/A   Overcast
1:33 AM 42.8 °F 33.8 °F 39.2 °F 87% 29.88 in 10.0 mi WNW 21.9 mph 31.1 mph N/A   Overcast
1:53 AM 42.8 °F 34.3 °F 39.2 °F 87% 29.88 in 10.0 mi NW 19.6 mph 32.2 mph N/A   Overcast
2:14 AM 42.8 °F 33.5 °F 39.2 °F 87% 29.89 in 10.0 mi NW 23.0 mph 29.9 mph N/A   Overcast
2:33 AM 42.8 °F 34.5 °F 39.2 °F 87% 29.90 in 10.0 mi WNW 18.4 mph 29.9 mph N/A   Overcast
2:53 AM 42.8 °F 33.8 °F 39.2 °F 87% 29.91 in 10.0 mi WNW 21.9 mph 31.1 mph N/A   Overcast
3:33 AM 42.8 °F 33.1 °F 39.2 °F 87% 29.93 in 10.0 mi WNW 25.3 mph 32.2 mph N/A   Overcast
4:13 AM 42.8 °F 33.8 °F 37.4 °F 81% 29.94 in 10.0 mi NW 21.9 mph 32.2 mph N/A   Overcast
4:33 AM 42.8 °F 34.5 °F 37.4 °F 81% 29.94 in 10.0 mi WNW 18.4 mph 26.5 mph N/A   Overcast
4:54 AM 41.0 °F 31.4 °F 39.2 °F 93% 29.95 in 10.0 mi WNW 21.9 mph 26.5 mph N/A   Overcast
5:13 AM 42.8 °F 32.9 °F 37.4 °F 81% 29.95 in 10.0 mi WNW 26.5 mph 29.9 mph N/A   Overcast
5:33 AM 42.8 °F 34.3 °F 37.4 °F 81% 29.95 in 10.0 mi WNW 19.6 mph 25.3 mph N/A   Overcast
5:54 AM 42.8 °F 33.8 °F 37.4 °F 81% 29.96 in 10.0 mi WNW 21.9 mph 28.8 mph N/A   Overcast
6:13 AM 42.8 °F 34.3 °F 37.4 °F 81% 29.97 in 10.0 mi WNW 19.6 mph 24.2 mph N/A   Overcast
6:33 AM 42.8 °F 34.3 °F 37.4 °F 81% 29.97 in 10.0 mi WNW 19.6 mph 31.1 mph N/A   Overcast
6:54 AM 42.8 °F 34.5 °F 37.4 °F 81% 29.98 in 10.0 mi NW 18.4 mph 29.9 mph N/A   Overcast
7:13 AM 41.0 °F 31.6 °F 37.4 °F 87% 29.99 in 10.0 mi WNW 20.7 mph 29.9 mph N/A   Overcast
8:13 AM 41.0 °F 31.6 °F 37.4 °F 87% 30.00 in 10.0 mi WNW 20.7 mph 31.1 mph N/A   Overcast
8:33 AM 41.0 °F 31.9 °F 37.4 °F 87% 30.01 in 10.0 mi WNW 19.6 mph 29.9 mph N/A   Overcast
8:53 AM 41.0 °F 31.6 °F 37.4 °F 87% 30.02 in 10.0 mi WNW 20.7 mph 24.2 mph N/A   Overcast
9:13 AM 41.0 °F 31.9 °F 37.4 °F 87% 30.03 in 10.0 mi NW 19.6 mph 27.6 mph N/A   Overcast
11:13 AM 42.8 °F 33.5 °F 37.4 °F 81% 30.07 in 10.0 mi WNW 23.0 mph 26.5 mph N/A   Overcast
11:33 AM 42.8 °F 34.3 °F 37.4 °F 81% 30.09 in 10.0 mi WNW 19.6 mph 27.6 mph N/A   Overcast
11:53 AM 44.6 °F 36.9 °F 37.4 °F 76% 30.09 in 10.0 mi WNW 18.4 mph 25.3 mph N/A   Overcast
12:33 PM 44.6 °F 37.2 °F 37.4 °F 76% 30.10 in 10.0 mi NW 17.3 mph 24.2 mph N/A   Overcast
12:53 PM 44.6 °F 37.4 °F 37.4 °F 76% 30.12 in 10.0 mi WNW 16.1 mph 24.2 mph N/A   Overcast
1:14 PM 44.6 °F 37.2 °F 37.4 °F 76% 30.12 in 10.0 mi WNW 17.3 mph 21.9 mph N/A   Overcast
1:33 PM 46.4 °F 38.7 °F 37.4 °F 71% 30.12 in 10.0 mi NW 20.7 mph 26.5 mph N/A   Overcast
1:53 PM 46.4 °F 39.0 °F 35.6 °F 66% 30.13 in 10.0 mi WNW 19.6 mph 26.5 mph N/A   Overcast
2:14 PM 48.2 °F - 37.4 °F 66% 30.14 in 10.0 mi WNW 16.1 mph - N/A   Mostly Cloudy
2:33 PM 48.2 °F - 35.6 °F 62% 30.14 in 10.0 mi WNW 19.6 mph 24.2 mph N/A   Mostly Cloudy
2:53 PM 48.2 °F - 35.6 °F 62% 30.14 in 10.0 mi West 18.4 mph 26.5 mph N/A   Scattered Clouds
3:14 PM 48.2 °F - 35.6 °F 62% 30.15 in 10.0 mi WNW 21.9 mph - N/A   Overcast
3:33 PM 50.0 °F - 35.6 °F 58% 30.15 in 10.0 mi WNW 18.4 mph 28.8 mph N/A   Mostly Cloudy
3:53 PM 50.0 °F - 35.6 °F 58% 30.14 in 10.0 mi WNW 23.0 mph 28.8 mph N/A   Mostly Cloudy
4:14 PM 44.6 °F 37.4 °F 37.4 °F 76% 30.15 in 10.0 mi WNW 16.1 mph 20.7 mph N/A Rain Light Rain
4:33 PM 48.2 °F - 37.4 °F 66% 30.15 in 10.0 mi WNW 19.6 mph 27.6 mph N/A   Mostly Cloudy
4:53 PM 51.8 °F - 35.6 °F 54% 30.15 in 10.0 mi WNW 23.0 mph 27.6 mph N/A   Mostly Cloudy
5:14 PM 48.2 °F - 35.6 °F 62% 30.15 in 10.0 mi NW 23.0 mph 29.9 mph N/A   Mostly Cloudy
5:33 PM 46.4 °F 40.7 °F 37.4 °F 71% 30.16 in 10.0 mi NW 12.7 mph - N/A   Overcast
5:53 PM 48.2 °F - 37.4 °F 66% 30.16 in 10.0 mi WNW 18.4 mph 23.0 mph N/A   Overcast
6:13 PM 48.2 °F - 35.6 °F 62% 30.16 in 10.0 mi WNW 23.0 mph - N/A   Overcast
6:33 PM 48.2 °F - 33.8 °F 58% 30.16 in 10.0 mi WNW 18.4 mph 25.3 mph N/A   Overcast
6:54 PM 48.2 °F - 35.6 °F 62% 30.16 in 10.0 mi WNW 16.1 mph 21.9 mph N/A   Overcast
7:13 PM 48.2 °F - 35.6 °F 62% 30.16 in 10.0 mi WNW 13.8 mph 19.6 mph N/A   Overcast
7:33 PM 46.4 °F 39.8 °F 35.6 °F 66% 30.17 in 10.0 mi WNW 16.1 mph 21.9 mph N/A   Overcast
7:53 PM 46.4 °F 39.8 °F 35.6 °F 66% 30.17 in 10.0 mi West 16.1 mph - N/A   Overcast
8:33 PM 44.6 °F 39.7 °F 35.6 °F 71% 30.17 in 10.0 mi West 9.2 mph - N/A   Scattered Clouds
8:53 PM 44.6 °F 40.2 °F 35.6 °F 71% 30.18 in 10.0 mi West 8.1 mph - N/A   Scattered Clouds
9:13 PM 42.8 °F 38.0 °F 33.8 °F 70% 30.18 in 10.0 mi West 8.1 mph - N/A   Clear
9:34 PM 41.0 °F 37.1 °F 33.8 °F 76% 30.17 in 10.0 mi West 5.8 mph - N/A   Clear
9:53 PM 39.2 °F 33.6 °F 33.8 °F 81% 30.18 in 10.0 mi West 8.1 mph - N/A   Clear
10:13 PM 39.2 °F 33.6 °F 35.6 °F 87% 30.19 in 10.0 mi West 8.1 mph - N/A   Clear
10:34 PM 39.2 °F 33.6 °F 33.8 °F 81% 30.19 in 10.0 mi West 8.1 mph - N/A   Clear
10:53 PM 37.4 °F 32.1 °F 33.8 °F 87% 30.18 in 10.0 mi WSW 6.9 mph - N/A   Clear
11:13 PM 37.4 °F 32.1 °F 33.8 °F 87% 30.19 in 10.0 mi WSW 6.9 mph - N/A   Clear
11:33 PM 37.4 °F 32.8 °F 35.6 °F 93% 30.19 in 10.0 mi WSW 5.8 mph - N/A   Clear
11:53 PM 37.4 °F 32.8 °F 33.8 °F 87% 30.19 in 10.0 mi WSW 5.8 mph - N/A   Clear